Location: Bathurst
(33.4193°S, 149.5775°E)
Time: 01:30:43
(UTC+11:00)

Tiangong - Visible Passes

Search period start: 06 October 2022 00:00
Search period end: 16 October 2022 00:00
Orbit: 383 x 386 km, 41.5° (Epoch: 05 October)

Date Brightness Start Highest point End Pass type
(mag) Time Alt. Az. Time Alt. Az. Time Alt. Az.
10 Oct 0.6 05:30:34 10° N 05:32:15 14° NE 05:33:57 10° ENE visible
12 Oct -0.4 05:07:31 20° N 05:08:49 26° NE 05:11:34 10° E visible
13 Oct 1.1 04:10:26 11° ENE 04:10:26 11° ENE 04:10:35 10° ENE visible
13 Oct -2.1 05:42:37 13° WNW 05:45:23 78° SSW 05:48:37 10° ESE visible
14 Oct -1.6 04:45:24 52° NE 04:45:24 52° NE 04:48:24 10° ESE visible
15 Oct -1.4 05:20:15 23° W 05:21:54 44° SSW 05:25:00 10° SE visible
